Total_Precipitation_Accumulation
0.02 0.02 0.02 0.04 0.07 0.11 0.17 0.20 0.24 0.21 0.25 0.33 0.33 0.30 0.25 0.22 0.21 0.21 0.19 0.14 0.11 0.11 0.10 0.10 0.13 0.16 0.25 0.31 0.35 0.42 0.55 0.75 0.85 0.82 0.75 0.71 0.67 0.68 0.64 0.55 0.48 0.40 0.33 0.31
0.05 0.06 0.09 0.12 0.13 0.11 0.11 0.11 0.14 0.18 0.25 0.26 0.25 0.25 0.25 0.23 0.20 0.19 0.15 0.12 0.10 0.09 0.08 0.07 0.07 0.09 0.15 0.25 0.31 0.39 0.49 0.59 0.62 0.65 0.65 0.59 0.54 0.50 0.47 0.44 0.38 0.32 0.27 0.25
0.05 0.12 0.16 0.17 0.14 0.21 0.24 0.19 0.19 0.29 0.31 0.24 0.22 0.18 0.14 0.12 0.12 0.11 0.10 0.08 0.08 0.08 0.07 0.06 0.06 0.08 0.13 0.19 0.23 0.33 0.39 0.43 0.49 0.57 0.58 0.49 0.41 0.42 0.42 0.35 0.29 0.24 0.20 0.16
0.06 0.16 0.22 0.15 0.04 0.05 0.10 0.12 0.13 0.17 0.17 0.14 0.12 0.08 0.04 0.03 0.04 0.04 0.04 0.05 0.05 0.05 0.05 0.04 0.05 0.09 0.12 0.17 0.21 0.30 0.38 0.43 0.46 0.54 0.53 0.45 0.41 0.39 0.35 0.29 0.23 0.18 0.16 0.12
0.05 0.10 0.12 0.08 0.03 0.01 0.04 0.05 0.01 0.03 0.03 0.03 0.01 0.03 0.06 0.03 0.01 0.02 0.03 0.04 0.03 0.03 0.04 0.07 0.08 0.09 0.12 0.19 0.22 0.27 0.35 0.42 0.48 0.53 0.48 0.42 0.38 0.32 0.27 0.25 0.19 0.13 0.13 0.11
0.03 0.09 0.11 0.05 0.01 0.00 0.02 0.07 0.01 0.01 0.02 0.02 0.04 0.12 0.15 0.05 0.00 0.01 0.03 0.07 0.07 0.06 0.09 0.13 0.12 0.11 0.15 0.20 0.25 0.33 0.40 0.45 0.49 0.49 0.46 0.41 0.36 0.29 0.23 0.22 0.19 0.13 0.11 0.10
0.01 0.04 0.04 0.01 0.01 0.01 0.06 0.11 0.02 0.00 0.01 0.01 0.05 0.10 0.08 0.01 0.00 0.01 0.02 0.07 0.11 0.14 0.21 0.20 0.16 0.15 0.18 0.20 0.25 0.30 0.37 0.43 0.49 0.51 0.42 0.37 0.33 0.28 0.23 0.20 0.20 0.17 0.12 0.10
0.01 0.04 0.03 0.00 0.00 0.02 0.04 0.02 0.00 0.00 0.01 0.01 0.02 0.02 0.03 0.02 0.02 0.02 0.04 0.07 0.14 0.23 0.27 0.23 0.21 0.25 0.27 0.27 0.26 0.27 0.34 0.39 0.46 0.49 0.36 0.29 0.31 0.28 0.24 0.23 0.23 0.20 0.17 0.13
0.00 0.01 0.01 0.00 0.00 0.00 0.00 0.01 0.01 0.01 0.01 0.01 0.01 0.02 0.02 0.02 0.03 0.06 0.08 0.10 0.12 0.19 0.22 0.22 0.26 0.31 0.37 0.37 0.30 0.29 0.34 0.42 0.43 0.44 0.44 0.40 0.32 0.28 0.25 0.23 0.24 0.22 0.20 0.18
0.01 0.01 0.00 0.00 0.00 0.00 0.00 0.01 0.01 0.01 0.01 0.01 0.02 0.02 0.02 0.02 0.03 0.06 0.08 0.09 0.09 0.13 0.19 0.24 0.28 0.32 0.33 0.33 0.30 0.30 0.35 0.43 0.46 0.47 0.47 0.44 0.40 0.36 0.32 0.28 0.27 0.26 0.24 0.21
0.02 0.02 0.01 0.01 0.00 0.00 0.00 0.00 0.01 0.01 0.01 0.01 0.02 0.03 0.03 0.03 0.04 0.04 0.06 0.06 0.08 0.12 0.19 0.24 0.29 0.30 0.23 0.18 0.20 0.25 0.32 0.42 0.49 0.50 0.49 0.46 0.39 0.36 0.35 0.34 0.29 0.29 0.27 0.22
0.03 0.02 0.02 0.02 0.01 0.00 0.00 0.01 0.01 0.01 0.01 0.01 0.02 0.03 0.04 0.04 0.04 0.04 0.04 0.05 0.07 0.09 0.14 0.18 0.22 0.26 0.24 0.18 0.17 0.23 0.28 0.31 0.35 0.37 0.38 0.38 0.32 0.21 0.15 0.13 0.11 0.11 0.12 0.12
0.02 0.02 0.01 0.01 0.01 0.00 0.01 0.01 0.01 0.01 0.01 0.02 0.02 0.03 0.03 0.03 0.03 0.04 0.04 0.05 0.07 0.09 0.12 0.15 0.19 0.24 0.26 0.20 0.14 0.13 0.15 0.16 0.18 0.19 0.21 0.22 0.23 0.19 0.12 0.07 0.04 0.03 0.03 0.02
0.01 0.01 0.01 0.01 0.00 0.00 0.00 0.01 0.01 0.01 0.02 0.02 0.03 0.03 0.03 0.03 0.04 0.05 0.06 0.07 0.08 0.09 0.10 0.13 0.17 0.20 0.24 0.28 0.25 0.17 0.12 0.07 0.08 0.11 0.11 0.11 0.11 0.11 0.08 0.06 0.03 0.01 0.00 0.00
0.00 0.00 0.01 0.00 0.00 0.01 0.01 0.01 0.02 0.02 0.03 0.03 0.04 0.04 0.04 0.05 0.05 0.06 0.06 0.07 0.09 0.10 0.12 0.14 0.17 0.19 0.21 0.26 0.31 0.26 0.15 0.07 0.03 0.04 0.05 0.04 0.04 0.05 0.04 0.03 0.02 0.01 0.01 0.00
0.00 0.00 0.01 0.01 0.02 0.03 0.03 0.03 0.04 0.04 0.04 0.04 0.05 0.05 0.05 0.05 0.06 0.06 0.06 0.08 0.10 0.11 0.12 0.15 0.18 0.20 0.22 0.27 0.33 0.30 0.22 0.09 0.05 0.04 0.03 0.02 0.01 0.01 0.01 0.01 0.01 0.00 0.01 0.00
0.02 0.03 0.04 0.05 0.05 0.04 0.05 0.06 0.08 0.08 0.09 0.08 0.08 0.08 0.07 0.07 0.08 0.08 0.09 0.10 0.11 0.11 0.10 0.13 0.17 0.21 0.27 0.31 0.36 0.32 0.24 0.14 0.06 0.03 0.03 0.02 0.01 0.00 0.00 0.00 0.00 0.00 0.00 0.00
0.06 0.08 0.09 0.08 0.07 0.08 0.10 0.12 0.14 0.15 0.15 0.15 0.14 0.14 0.14 0.15 0.15 0.14 0.14 0.14 0.14 0.14 0.13 0.13 0.15 0.18 0.25 0.33 0.37 0.34 0.29 0.18 0.08 0.03 0.01 0.01 0.00 0.00 0.00 0.00 0.00 0.00 0.00 0.00
0.08 0.10 0.11 0.12 0.14 0.17 0.20 0.21 0.21 0.22 0.21 0.20 0.20 0.19 0.19 0.20 0.20 0.20 0.19 0.19 0.19 0.18 0.19 0.21 0.21 0.19 0.20 0.28 0.37 0.36 0.29 0.21 0.11 0.05 0.01 0.01 0.00 0.00 0.00 0.00 0.00 0.00 0.00 0.00
0.15 0.19 0.23 0.26 0.27 0.29 0.29 0.28 0.27 0.25 0.23 0.23 0.24 0.25 0.25 0.24 0.24 0.24 0.25 0.24 0.23 0.24 0.25 0.25 0.22 0.19 0.18 0.25 0.33 0.32 0.28 0.22 0.14 0.07 0.03 0.01 0.00 0.00 0.00 0.00 0.00 0.00 0.00 0.00
0.29 0.34 0.38 0.42 0.42 0.40 0.38 0.36 0.34 0.30 0.27 0.28 0.31 0.30 0.28 0.27 0.26 0.28 0.29 0.25 0.23 0.27 0.27 0.24 0.21 0.21 0.22 0.28 0.34 0.32 0.27 0.21 0.15 0.08 0.04 0.01 0.00 0.00 0.00 0.00 0.00 0.00 0.00 0.00
0.31 0.33 0.34 0.34 0.33 0.30 0.26 0.24 0.23 0.22 0.23 0.25 0.25 0.25 0.25 0.24 0.24 0.25 0.25 0.25 0.24 0.25 0.23 0.22 0.23 0.24 0.27 0.31 0.31 0.30 0.25 0.19 0.13 0.08 0.05 0.02 0.00 0.00 0.00 0.00 0.00 0.00 0.00 0.00
0.22 0.22 0.21 0.19 0.18 0.16 0.14 0.14 0.15 0.18 0.19 0.20 0.22 0.23 0.24 0.24 0.23 0.23 0.19 0.18 0.22 0.20 0.19 0.20 0.21 0.22 0.22 0.24 0.26 0.26 0.22 0.18 0.13 0.08 0.04 0.02 0.01 0.00 0.00 0.00 0.00 0.01 0.01 0.01
0.10 0.09 0.08 0.08 0.08 0.10 0.10 0.10 0.12 0.14 0.16 0.18 0.18 0.18 0.22 0.24 0.21 0.18 0.17 0.14 0.13 0.12 0.13 0.13 0.14 0.15 0.15 0.16 0.17 0.18 0.17 0.15 0.12 0.07 0.03 0.02 0.01 0.01 0.01 0.01 0.01 0.01 0.01 0.01
0.03 0.04 0.05 0.07 0.10 0.11 0.13 0.14 0.15 0.15 0.18 0.20 0.19 0.17 0.21 0.25 0.24 0.19 0.15 0.11 0.11 0.09 0.09 0.10 0.10 0.10 0.10 0.09 0.11 0.12 0.11 0.10 0.09 0.06 0.03 0.02 0.02 0.02 0.02 0.02 0.01 0.01 0.01 0.01
0.05 0.07 0.09 0.12 0.16 0.20 0.23 0.25 0.26 0.27 0.31 0.36 0.33 0.26 0.26 0.25 0.23 0.20 0.16 0.11 0.09 0.08 0.08 0.10 0.11 0.09 0.08 0.07 0.07 0.08 0.08 0.07 0.06 0.05 0.04 0.03 0.02 0.02 0.02 0.02 0.02 0.02 0.02 0.01
0.09 0.12 0.17 0.18 0.18 0.24 0.31 0.36 0.40 0.43 0.49 0.59 0.59 0.45 0.33 0.26 0.23 0.19 0.16 0.13 0.11 0.11 0.10 0.10 0.11 0.10 0.09 0.08 0.07 0.06 0.06 0.05 0.04 0.04 0.03 0.03 0.03 0.02 0.02 0.02 0.02 0.02 0.01 0.01